Time,TemperatureF,DewpointF,PressureIn,WindDirection,WindDirectionDegrees,WindSpeedMPH,WindSpeedGustMPH,Humidity,HourlyPrecipIn,Conditions,Clouds,dailyrainin,SolarRadiationWatts/m^2,SoftwareType,DateUTC
2013-02-07 00:11:00,43.5,41.0,30.15,NNW,327,0.0,0.0,90,0.00,,,0.00,0,weatherlink.com 1.10,2013-02-07 08:11:00,
2013-02-07 00:26:00,43.2,41.0,30.15,NNW,327,0.0,0.0,90,0.00,,,0.00,0,weatherlink.com 1.10,2013-02-07 08:26:00,
2013-02-07 00:41:00,43.3,41.0,30.14,NNW,327,0.0,0.0,91,0.00,,,0.00,0,weatherlink.com 1.10,2013-02-07 08:41:00,
2013-02-07 00:56:00,43.8,41.0,30.14,NNW,327,0.0,0.0,91,0.00,,,0.00,0,weatherlink.com 1.10,2013-02-07 08:56:00,
2013-02-07 01:11:00,44.2,42.0,30.14,NNW,327,0.0,0.0,91,0.00,,,0.00,0,weatherlink.com 1.10,2013-02-07 09:11:00,
2013-02-07 01:26:00,44.5,42.0,30.14,NNW,327,0.0,0.0,91,0.00,,,0.00,0,weatherlink.com 1.10,2013-02-07 09:26:00,
2013-02-07 01:41:00,44.6,42.0,30.14,NNW,327,0.0,1.0,91,0.00,,,0.00,0,weatherlink.com 1.10,2013-02-07 09:41:00,
2013-02-07 01:56:00,44.9,43.0,30.14,NNW,327,0.0,0.0,91,0.00,,,0.00,0,weatherlink.com 1.10,2013-02-07 09:56:00,
2013-02-07 02:11:00,44.9,43.0,30.14,NNW,331,0.0,0.0,91,0.00,,,0.00,0,weatherlink.com 1.10,2013-02-07 10:11:00,
2013-02-07 02:26:00,45.1,43.0,30.14,NNW,331,0.0,0.0,91,0.00,,,0.00,0,weatherlink.com 1.10,2013-02-07 10:26:00,
2013-02-07 02:42:00,45.1,42.0,30.14,NNW,331,0.0,1.0,90,0.00,,,0.00,0,weatherlink.com 1.10,2013-02-07 10:42:00,
2013-02-07 02:56:00,45.2,43.0,30.13,NNW,331,0.0,1.0,90,0.00,,,0.00,0,weatherlink.com 1.10,2013-02-07 10:56:00,
2013-02-07 03:11:00,45.1,42.0,30.13,NNW,331,0.0,0.0,89,0.00,,,0.00,0,weatherlink.com 1.10,2013-02-07 11:11:00,
2013-02-07 03:26:00,45.1,42.0,30.12,NNW,331,0.0,1.0,88,0.00,,,0.00,0,weatherlink.com 1.10,2013-02-07 11:26:00,
2013-02-07 03:42:00,44.9,42.0,30.12,NNW,331,0.0,0.0,88,0.00,,,0.00,0,weatherlink.com 1.10,2013-02-07 11:42:00,
2013-02-07 03:57:00,44.9,41.0,30.12,NNW,331,0.0,0.0,87,0.00,,,0.00,0,weatherlink.com 1.10,2013-02-07 11:57:00,
2013-02-07 04:11:00,44.8,41.0,30.11,NE,55,0.0,1.0,87,0.00,,,0.00,0,weatherlink.com 1.10,2013-02-07 12:11:00,
2013-02-07 04:26:00,44.5,41.0,30.11,NE,55,0.0,0.0,86,0.00,,,0.00,0,weatherlink.com 1.10,2013-02-07 12:26:00,
2013-02-07 04:41:00,44.5,41.0,30.11,NE,55,0.0,0.0,86,0.00,,,0.00,0,weatherlink.com 1.10,2013-02-07 12:41:00,
2013-02-07 04:57:00,44.5,41.0,30.11,East,98,0.0,0.0,86,0.00,,,0.00,0,weatherlink.com 1.10,2013-02-07 12:57:00,
2013-02-07 05:11:00,44.6,41.0,30.11,East,98,0.0,0.0,86,0.00,,,0.00,0,weatherlink.com 1.10,2013-02-07 13:11:00,
2013-02-07 05:27:00,44.6,40.0,30.10,East,98,0.0,1.0,85,0.00,,,0.00,0,weatherlink.com 1.10,2013-02-07 13:27:00,
2013-02-07 05:41:00,44.8,41.0,30.10,East,98,0.0,0.0,85,0.00,,,0.00,0,weatherlink.com 1.10,2013-02-07 13:41:00,
2013-02-07 05:57:00,44.6,40.0,30.10,East,98,0.0,1.0,84,0.00,,,0.00,0,weatherlink.com 1.10,2013-02-07 13:57:00,
2013-02-07 06:12:00,44.5,40.0,30.10,East,98,0.0,1.0,84,0.00,,,0.00,0,weatherlink.com 1.10,2013-02-07 14:12:00,
2013-02-07 06:27:00,44.5,40.0,30.09,East,98,0.0,0.0,83,0.00,,,0.00,0,weatherlink.com 1.10,2013-02-07 14:27:00,
2013-02-07 06:42:00,44.5,40.0,30.09,East,101,0.0,1.0,83,0.00,,,0.00,0,weatherlink.com 1.10,2013-02-07 14:42:00,
2013-02-07 06:57:00,44.6,40.0,30.09,East,94,0.0,1.0,83,0.00,,,0.00,0,weatherlink.com 1.10,2013-02-07 14:57:00,
2013-02-07 07:12:00,44.8,40.0,30.09,East,94,0.0,1.0,82,0.00,,,0.00,12,weatherlink.com 1.10,2013-02-07 15:12:00,
2013-02-07 07:27:00,44.8,39.0,30.09,East,94,0.0,0.0,81,0.00,,,0.00,23,weatherlink.com 1.10,2013-02-07 15:27:00,
2013-02-07 07:42:00,45.1,39.0,30.09,East,94,0.0,1.0,80,0.00,,,0.00,60,weatherlink.com 1.10,2013-02-07 15:42:00,
2013-02-07 07:57:00,45.8,40.0,30.09,East,94,0.0,0.0,79,0.00,,,0.00,70,weatherlink.com 1.10,2013-02-07 15:57:00,
2013-02-07 08:12:00,46.5,40.0,30.09,East,94,0.0,1.0,77,0.00,,,0.00,97,weatherlink.com 1.10,2013-02-07 16:12:00,
2013-02-07 08:27:00,47.0,40.0,30.10,East,94,0.0,1.0,77,0.00,,,0.00,53,weatherlink.com 1.10,2013-02-07 16:27:00,
2013-02-07 08:42:00,47.0,41.0,30.10,SE,138,0.0,1.0,80,0.00,,,0.00,23,weatherlink.com 1.10,2013-02-07 16:42:00,
2013-02-07 08:57:00,46.7,42.0,30.10,SE,138,0.0,0.0,82,0.01,,,0.01,26,weatherlink.com 1.10,2013-02-07 16:57:00,
2013-02-07 09:12:00,46.4,42.0,30.11,SE,138,0.0,0.0,83,0.03,,,0.03,18,weatherlink.com 1.10,2013-02-07 17:12:00,
2013-02-07 09:27:00,46.1,42.0,30.12,SE,138,0.0,1.0,85,0.04,,,0.04,19,weatherlink.com 1.10,2013-02-07 17:27:00,
2013-02-07 09:42:00,45.7,42.0,30.12,SE,144,0.0,0.0,87,0.05,,,0.05,60,weatherlink.com 1.10,2013-02-07 17:42:00,
2013-02-07 09:57:00,46.0,43.0,30.12,SE,144,0.0,0.0,88,0.04,,,0.05,153,weatherlink.com 1.10,2013-02-07 17:57:00,
2013-02-07 10:12:00,47.0,44.0,30.11,SE,144,0.0,1.0,89,0.02,,,0.05,230,weatherlink.com 1.10,2013-02-07 18:12:00,
2013-02-07 10:27:00,48.0,45.0,30.11,SE,142,0.0,1.0,88,0.01,,,0.05,176,weatherlink.com 1.10,2013-02-07 18:27:00,
2013-02-07 10:42:00,48.6,45.0,30.12,SE,142,0.0,1.0,88,0.00,,,0.05,237,weatherlink.com 1.10,2013-02-07 18:42:00,
2013-02-07 10:57:00,49.2,46.0,30.11,SE,142,0.0,0.0,87,0.00,,,0.05,137,weatherlink.com 1.10,2013-02-07 18:57:00,
2013-02-07 11:12:00,49.4,45.0,30.11,ESE,105,0.0,1.0,86,0.00,,,0.05,77,weatherlink.com 1.10,2013-02-07 19:12:00,
2013-02-07 11:27:00,49.6,45.0,30.10,ESE,105,0.0,1.0,83,0.00,,,0.05,492,weatherlink.com 1.10,2013-02-07 19:27:00,
2013-02-07 11:42:00,50.5,45.0,30.10,ESE,103,0.0,1.0,81,0.00,,,0.05,229,weatherlink.com 1.10,2013-02-07 19:42:00,
2013-02-07 11:58:00,51.4,45.0,30.09,ESE,103,0.0,1.0,80,0.00,,,0.05,392,weatherlink.com 1.10,2013-02-07 19:58:00,
2013-02-07 12:12:00,52.8,45.0,30.09,East,82,0.0,2.0,76,0.00,,,0.05,141,weatherlink.com 1.10,2013-02-07 20:12:00,
2013-02-07 12:27:00,53.1,44.0,30.08,NNW,328,2.0,4.0,70,0.00,,,0.05,132,weatherlink.com 1.10,2013-02-07 20:27:00,
2013-02-07 12:42:00,53.1,42.0,30.07,WNW,296,2.0,6.0,65,0.00,,,0.05,171,weatherlink.com 1.10,2013-02-07 20:42:00,
2013-02-07 12:57:00,53.5,42.0,30.07,WNW,296,2.0,4.0,66,0.00,,,0.05,195,weatherlink.com 1.10,2013-02-07 20:57:00,
2013-02-07 13:27:00,54.2,43.0,30.06,North,9,0.0,3.0,65,0.00,,,0.05,116,weatherlink.com 1.10,2013-02-07 21:27:00,
2013-02-07 13:42:00,53.5,40.0,30.06,NNW,340,2.0,7.0,61,0.00,,,0.05,72,weatherlink.com 1.10,2013-02-07 21:42:00,
2013-02-07 13:58:00,53.5,40.0,30.05,NW,316,1.0,6.0,60,0.00,,,0.05,79,weatherlink.com 1.10,2013-02-07 21:58:00,
2013-02-07 14:13:00,53.5,39.0,30.05,NW,315,1.0,3.0,59,0.00,,,0.05,56,weatherlink.com 1.10,2013-02-07 22:13:00,
2013-02-07 14:28:00,53.2,39.0,30.04,WNW,283,2.0,5.0,58,0.00,,,0.05,42,weatherlink.com 1.10,2013-02-07 22:28:00,
2013-02-07 14:43:00,53.1,38.0,30.04,NW,304,0.0,4.0,56,0.00,,,0.05,37,weatherlink.com 1.10,2013-02-07 22:43:00,
2013-02-07 14:58:00,53.1,36.0,30.04,NNW,333,2.0,6.0,53,0.00,,,0.05,53,weatherlink.com 1.10,2013-02-07 22:58:00,
2013-02-07 15:13:00,53.2,37.0,30.04,NW,311,1.0,4.0,54,0.00,,,0.05,169,weatherlink.com 1.10,2013-02-07 23:13:00,
2013-02-07 15:28:00,53.1,36.0,30.04,North,355,2.0,4.0,52,0.00,,,0.05,54,weatherlink.com 1.10,2013-02-07 23:28:00,
2013-02-07 15:43:00,52.5,36.0,30.04,NNW,345,2.0,4.0,54,0.00,,,0.05,311,weatherlink.com 1.10,2013-02-07 23:43:00,
2013-02-07 15:58:00,52.3,37.0,30.04,NW,313,0.0,5.0,56,0.00,,,0.05,60,weatherlink.com 1.10,2013-02-07 23:58:00,
2013-02-07 16:13:00,51.9,37.0,30.04,NW,319,2.0,6.0,58,0.00,,,0.05,35,weatherlink.com 1.10,2013-02-08 00:13:00,
2013-02-07 16:28:00,51.3,36.0,30.04,WNW,290,2.0,4.0,56,0.00,,,0.05,26,weatherlink.com 1.10,2013-02-08 00:28:00,
2013-02-07 16:43:00,50.8,37.0,30.04,North,355,2.0,5.0,59,0.00,,,0.05,23,weatherlink.com 1.10,2013-02-08 00:43:00,
2013-02-07 16:58:00,50.4,38.0,30.03,SW,228,1.0,4.0,62,0.00,,,0.05,19,weatherlink.com 1.10,2013-02-08 00:58:00,
2013-02-07 17:13:00,49.9,38.0,30.03,WSW,257,0.0,2.0,63,0.00,,,0.05,12,weatherlink.com 1.10,2013-02-08 01:13:00,
2013-02-07 17:28:00,49.2,37.0,30.03,NNW,327,1.0,3.0,64,0.00,,,0.05,7,weatherlink.com 1.10,2013-02-08 01:28:00,
2013-02-07 17:43:00,48.6,37.0,30.02,SW,221,0.0,3.0,64,0.00,,,0.05,0,weatherlink.com 1.10,2013-02-08 01:43:00,
2013-02-07 17:58:00,48.2,38.0,30.02,North,360,0.0,2.0,67,0.00,,,0.05,0,weatherlink.com 1.10,2013-02-08 01:58:00,
2013-02-07 18:13:00,47.6,37.0,30.02,North,360,0.0,1.0,68,0.00,,,0.05,0,weatherlink.com 1.10,2013-02-08 02:13:00,
2013-02-07 18:28:00,46.5,36.0,30.02,North,360,0.0,1.0,68,0.00,,,0.05,0,weatherlink.com 1.10,2013-02-08 02:28:00,
2013-02-07 18:43:00,45.8,36.0,30.02,ESE,102,0.0,2.0,69,0.00,,,0.05,0,weatherlink.com 1.10,2013-02-08 02:43:00,
2013-02-07 18:58:00,45.4,36.0,30.01,ESE,102,0.0,1.0,71,0.00,,,0.05,0,weatherlink.com 1.10,2013-02-08 02:58:00,
2013-02-07 19:13:00,45.2,37.0,30.01,ESE,102,0.0,0.0,73,0.00,,,0.05,0,weatherlink.com 1.10,2013-02-08 03:13:00,
2013-02-07 19:28:00,45.2,37.0,30.01,ESE,102,0.0,0.0,74,0.00,,,0.05,0,weatherlink.com 1.10,2013-02-08 03:28:00,
2013-02-07 19:43:00,45.5,38.0,30.01,ESE,102,0.0,0.0,75,0.00,,,0.05,0,weatherlink.com 1.10,2013-02-08 03:43:00,
2013-02-07 19:58:00,46.2,41.0,30.02,NNW,347,1.0,5.0,81,0.01,,,0.06,0,weatherlink.com 1.10,2013-02-08 03:58:00,
2013-02-07 20:13:00,45.4,41.0,30.02,NNW,339,0.0,2.0,84,0.06,,,0.11,0,weatherlink.com 1.10,2013-02-08 04:13:00,
2013-02-07 20:28:00,44.6,40.0,30.01,NNW,339,0.0,0.0,85,0.10,,,0.15,0,weatherlink.com 1.10,2013-02-08 04:28:00,
2013-02-07 20:43:00,44.1,40.0,30.01,NNW,339,0.0,0.0,86,0.10,,,0.15,0,weatherlink.com 1.10,2013-02-08 04:43:00,
2013-02-07 20:59:00,43.6,40.0,30.01,NNW,339,0.0,0.0,86,0.09,,,0.15,0,weatherlink.com 1.10,2013-02-08 04:59:00,
2013-02-07 21:13:00,43.3,40.0,30.01,NNW,339,0.0,0.0,87,0.04,,,0.15,0,weatherlink.com 1.10,2013-02-08 05:13:00,
2013-02-07 21:28:00,43.2,40.0,30.00,NNW,339,0.0,0.0,87,0.01,,,0.16,0,weatherlink.com 1.10,2013-02-08 05:28:00,
2013-02-07 21:43:00,43.3,40.0,30.00,NNW,339,0.0,0.0,89,0.02,,,0.17,0,weatherlink.com 1.10,2013-02-08 05:43:00,
2013-02-07 21:58:00,43.2,40.0,29.99,NNW,339,0.0,1.0,89,0.02,,,0.17,0,weatherlink.com 1.10,2013-02-08 05:58:00,
2013-02-07 22:13:00,42.8,40.0,29.99,NNW,339,0.0,0.0,89,0.02,,,0.17,0,weatherlink.com 1.10,2013-02-08 06:13:00,
2013-02-07 22:28:00,42.2,39.0,29.99,NNW,339,0.0,0.0,89,0.00,,,0.17,0,weatherlink.com 1.10,2013-02-08 06:28:00,
2013-02-07 22:44:00,41.6,39.0,29.98,NNW,339,0.0,0.0,89,0.00,,,0.17,0,weatherlink.com 1.10,2013-02-08 06:44:00,
2013-02-07 22:58:00,41.3,39.0,29.98,NNW,339,0.0,1.0,90,0.00,,,0.17,0,weatherlink.com 1.10,2013-02-08 06:58:00,
2013-02-07 23:13:00,41.2,39.0,29.98,NNW,344,0.0,1.0,90,0.00,,,0.17,0,weatherlink.com 1.10,2013-02-08 07:13:00,
2013-02-07 23:28:00,41.2,39.0,29.98,NNW,344,0.0,0.0,90,0.00,,,0.17,0,weatherlink.com 1.10,2013-02-08 07:28:00,
2013-02-07 23:43:00,41.1,39.0,29.97,NNW,344,0.0,0.0,91,0.00,,,0.17,0,weatherlink.com 1.10,2013-02-08 07:43:00,
2013-02-07 23:59:00,40.9,39.0,29.97,NNW,344,0.0,0.0,91,0.00,,,0.17,0,weatherlink.com 1.10,2013-02-08 07:59:00,